Погода в Котии

Бразилия     23°36′28″S   46°55′41″W
темп.,
°C
ветер,
м/с
пор.,
м/с
влажн.,
%
обл.,
%
осадки,
мм/ч
давл.,
гПа
погр.,
м
27 февраля, сб
сб2700:00+19вюв259286 0.9 1014201
03:00+18вюв129483 0.9 101383
06:00+17вюв11954 0.0 101464
09:00+22св13712 0.0 1015771
12:00+24ссз227729 2.5 1014842
15:00+24ююв228034 10.1 1012783
18:00+20вюв3789100 8.2 1012360
21:00+19вюв2695100 14.9 1014317
28 февраля, вс
вс2800:00+19юв1397100 6.0 1014191
03:00+18ююв1195100 8.0 101363
06:00+18вюв119192 0.0 101351
09:00+21св138085 0.0 1014306
12:00+27с255293 0.0 10141469
15:00+26ссз246461 0.8 1012926
18:00+22ююв13798 1.9 1012199
21:00+20юв248853 2.3 1013128
1 марта, пн
пн100:00+19вюв238574 0.0 101397
03:00+18всв118752 0.0 101262
06:00+18с118965 0.0 101359
09:00+23с377173 0.0 1013698
12:00+26ссз356533 1.9 10131175
15:00+25сз247424 4.1 1010869
18:00+22зсз128255 1.4 1010204
21:00+20ююв128477 2.0 1012153
2 марта, вт
вт200:00+19юв128579 0.0 101397
03:00+18с018884 0.0 101249
06:00+18с1189100 0.0 101350
09:00+23ссз3775100 0.0 1014632
12:00+27сз355694 0.0 10141424
15:00+27ссз346363 1.5 10121155
18:00+23ссв118669 5.9 101281
21:00+21юв128784 12.2 101492
3 марта, ср
ср300:00+21всв1186100 0.3 101575
03:00+20ссз1187100 1.8 101435
06:00+19зсз1193100 2.4 101527
09:00+22с1287100 5.0 1017199
12:00+25ссз3668100 0.4 10161239
15:00+26сз246085 0.5 10141244
18:00+22з1283100 0.8 1013104
21:00+20зюз1188100 1.2 101552